カタログに戻る

STARLINK-4768

運用中通信VLEO
NORAD 53806·PAYLOAD·🇺🇸 United States

打ち上げ Sep 11, 2022 から Cape Canaveral Space Force Station

Loading…

次のパス (今後24時間)

TLE

最新Source: CelesTrak SupGP

元期: Sep 15, 2026, 01:21 UTC

1 53806C 22111AK  26258.05673611  .00029099  00000+0  83251-3 0  2589
2 53806  53.1584 111.4787 0001254  80.7715 268.1227 15.35385100    19

AllMySatでSTARLINK-4768をリアルタイム追跡

Download on the App Store